Location: Gebenbach
(49.5378°N, 11.8735°E)
Time: 03:25:38
(UTC+00:00)

Okean-O - Pass Details

Date: 29 October 2020
Orbit: 638 x 641 km, 98.2° (Epoch: 24 November)

Event Time Altitude Azimuth Distance (km) Brightness Sun altitude
Rises 17:59:11 0° 178° (S) 2,934 6.0 -20.6°
Reaches altitude 10° 18:01:26 10° 183° (S) 2,030 5.2 -21.0°
Maximum altitude 18:05:45 51° 260° (W) 809 3.5 -21.7°
Drops below altitude 10° 18:10:05 10° 337° (NNW) 2,045 5.5 -22.4°
Sets 18:12:22 0° 342° (NNW) 2,958 6.3 -22.8°
